, SD

(GMT )
Rapid City

Weather History for KRAP - November, 2013

Change the Weather History Date:

Tuesday, November 5, 2013

  Actual Average Record
Temperature  
Mean Temperature 24 °F 40 °F  
Max Temperature 32 °F 53 °F 77 °F (2016)
Min Temperature 15 °F 27 °F 0 °F (1959)
Degree Days  
Heating Degree Days 41 25  
Month to date heating degree days 138 122  
Since 1 July heating degree days 933 884  
Cooling Degree Days 0 0  
Month to date cooling degree days 0 0  
Year to date cooling degree days 724 636  
Moisture  
Dew Point 24 °F    
Average Humidity 85    
Maximum Humidity 92    
Minimum Humidity 78    
Precipitation  
Precipitation 0.32 in 0.02 in 0.35 in (2008)
Month to date precipitation 0.32 0.11  
Year to date precipitation 21.08 15.45  
Snow  
Snow 3.10 in 0.20 in 3.10 in (2013)
Month to date snowfall 3.1 0.9  
Since 1 July snowfall 23.9 2.7  
Since 1 September snowfall 23.9 2.7  
Snow Depth 1.00 in    
Sea Level Pressure  
Sea Level Pressure 30.16 in    
Wind  
Wind Speed 5 mph (East)    
Max Wind Speed 12 mph    
Max Gust Speed 14 mph    
Visibility 4 miles    
Events Fog , Snow    
T = Trace of Precipitation, MM = Missing Value Source: NWS Daily Summary

Daily Weather History Graph

Daily Weather History Graph

Search for Another Location

Airport or City:

Trip Planner

Search our weather history database for the weather conditions in past years. The results will help you decide how hot, cold, wet, or windy it might be!

Date:

Astronomy

Nov. 05, 2013 Rise Set
Actual Time 6:34 AM MST 4:36 PM MST
Civil Twilight 6:04 AM MST 5:06 PM MST
Nautical Twilight 5:29 AM MST 5:41 PM MST
Astronomical Twilight 4:55 AM MST 6:15 PM MST
Moon 8:54 AM MST (11/5) 6:37 PM MST (11/5)
Length of Visible Light 11h 02m
Length of Day
10h 02m
Waxing Crescent, 7% of the Moon is Illuminated
Nov 5
Waxing Crescent
Nov 9
First Quarter
Nov 17
Full
Nov 25
Last Quarter
Dec 2
New

Hourly Weather History & Observations

Time (MST) Temp. Windchill Dew Point Humidity Pressure Visibility Wind Dir Wind Speed Gust Speed Precip Events Conditions
12:26 AM 30.2 °F 26.7 °F 26.6 °F 86% 30.11 in 2.0 mi East 3.5 mph - 0.00 in Snow Light Snow
12:29 AM 30.2 °F 26.7 °F 26.6 °F 86% 30.11 in 1.8 mi East 3.5 mph - 0.00 in Snow Light Snow
12:52 AM 30.0 °F 26.5 °F 28.0 °F 92% 30.17 in 2.0 mi East 3.5 mph - 0.01 in Snow Light Snow
1:14 AM 30.2 °F - 28.4 °F 93% 30.10 in 1.8 mi Calm Calm - 0.01 in Snow Light Snow
1:22 AM 30.2 °F 26.7 °F 28.4 °F 93% 30.10 in 1.5 mi East 3.5 mph - 0.01 in Snow Light Snow
1:33 AM 30.2 °F 25.4 °F 28.4 °F 93% 30.10 in 1.2 mi East 4.6 mph - 0.02 in Snow Light Snow
1:52 AM 30.0 °F 24.1 °F 28.0 °F 92% 30.17 in 1.0 mi East 5.8 mph - 0.03 in Snow Light Snow
2:14 AM 30.2 °F 21.9 °F 26.6 °F 86% 30.09 in 1.2 mi ENE 9.2 mph - 0.01 in Snow Light Snow
2:24 AM 30.2 °F 23.4 °F 26.6 °F 86% 30.08 in 1.8 mi East 6.9 mph - 0.02 in Snow Light Snow
2:38 AM 30.2 °F 24.3 °F 28.4 °F 93% 30.08 in 1.5 mi ENE 5.8 mph - 0.02 in Snow Light Snow
2:42 AM 30.2 °F 25.4 °F 26.6 °F 86% 30.08 in 1.5 mi ENE 4.6 mph - 0.02 in Snow Light Snow
2:52 AM 30.0 °F 24.1 °F 27.0 °F 88% 30.14 in 2.0 mi NE 5.8 mph - 0.03 in Snow Light Snow
3:07 AM 30.2 °F 23.4 °F 26.6 °F 86% 30.07 in 3.0 mi NE 6.9 mph - 0.00 in Snow Light Snow
3:19 AM 30.2 °F 26.7 °F 26.6 °F 86% 30.07 in 2.5 mi NE 3.5 mph - 0.00 in Snow Light Snow
3:41 AM 28.4 °F 23.3 °F 26.6 °F 93% 30.08 in 1.5 mi ENE 4.6 mph - 0.01 in Snow Light Snow
3:52 AM 28.9 °F 23.9 °F 27.0 °F 92% 30.16 in 1.5 mi ENE 4.6 mph - 0.01 in Snow Light Snow
4:06 AM 28.4 °F 22.2 °F 26.6 °F 93% 30.08 in 0.8 mi ENE 5.8 mph - 0.01 in Snow Light Snow
4:20 AM 28.4 °F - 26.6 °F 93% 30.08 in 1.2 mi Calm Calm - 0.02 in Snow Light Snow
4:52 AM 28.9 °F 22.8 °F 27.0 °F 92% 30.17 in 1.5 mi NE 5.8 mph - 0.04 in Snow Light Snow
5:19 AM 28.4 °F 23.3 °F 28.4 °F 100% 30.10 in 1.0 mi NE 4.6 mph - 0.01 in Snow Light Snow
5:29 AM 28.4 °F 23.3 °F 26.6 °F 93% 30.10 in 1.0 mi NE 4.6 mph - 0.02 in Snow Light Snow
5:38 AM 28.4 °F 21.2 °F 26.6 °F 93% 30.10 in 1.2 mi ENE 6.9 mph - 0.03 in Snow Light Snow
5:52 AM 28.9 °F 21.9 °F 26.1 °F 89% 30.19 in 1.5 mi ENE 6.9 mph - 0.03 in Snow Light Snow
6:27 AM 28.4 °F 21.2 °F 26.6 °F 93% 30.11 in 0.5 mi ENE 6.9 mph - 0.02 in Fog , Snow Light Snow
6:52 AM 28.9 °F 22.8 °F 26.1 °F 89% 30.22 in 0.5 mi NE 5.8 mph - 0.04 in Fog , Snow Snow
6:55 AM 28.4 °F 21.2 °F 26.6 °F 93% 30.12 in 1.0 mi NE 6.9 mph - 0.00 in Snow Light Snow
7:03 AM 28.4 °F 21.2 °F 26.6 °F 93% 30.12 in 0.5 mi NE 6.9 mph - 0.01 in Fog , Snow Snow
7:18 AM 28.4 °F 22.2 °F 26.6 °F 93% 30.13 in 0.2 mi NE 5.8 mph - 0.02 in Fog , Snow Snow
7:49 AM 28.4 °F 22.2 °F 26.6 °F 93% 30.14 in 0.2 mi NE 5.8 mph - 0.04 in Fog , Snow Snow
7:52 AM 28.9 °F 21.9 °F 26.1 °F 89% 30.24 in 0.2 mi NE 6.9 mph - 0.04 in Fog , Snow Snow
8:04 AM 28.4 °F 20.4 °F 26.6 °F 93% 30.14 in 0.2 mi NE 8.1 mph - 0.01 in Fog , Snow Snow
8:40 AM 28.4 °F 21.2 °F 26.6 °F 93% 30.15 in 0.2 mi NE 6.9 mph - 0.03 in Fog , Snow Light Snow
8:52 AM 28.9 °F 20.4 °F 26.1 °F 89% 30.25 in 0.2 mi NE 9.2 mph - 0.04 in Fog , Snow Light Snow
8:59 AM 28.4 °F 19.7 °F 26.6 °F 93% 30.15 in 0.8 mi NE 9.2 mph - 0.00 in Snow Light Snow
9:08 AM 28.4 °F 19.7 °F 26.6 °F 93% 30.15 in 0.2 mi NE 9.2 mph - 0.00 in Fog , Snow Light Snow
9:52 AM 28.9 °F 19.8 °F 26.1 °F 89% 30.25 in 1.0 mi ENE 10.4 mph - 0.02 in Snow Light Snow
10:28 AM 28.4 °F 19.7 °F 26.6 °F 93% 30.16 in 0.8 mi ENE 9.2 mph - 0.01 in Snow Light Snow
10:49 AM 28.4 °F 20.4 °F 26.6 °F 93% 30.15 in 1.0 mi ENE 8.1 mph - 0.02 in Snow Light Snow
10:52 AM 28.9 °F 21.1 °F 26.1 °F 89% 30.25 in 1.0 mi ENE 8.1 mph - 0.02 in Snow Light Snow
11:12 AM 30.2 °F 23.4 °F 26.6 °F 86% 30.15 in 1.5 mi NE 6.9 mph - 0.01 in Snow Light Snow
11:40 AM 30.2 °F 23.4 °F 26.6 °F 86% 30.14 in 2.5 mi ENE 6.9 mph - 0.01 in Snow Light Snow
11:48 AM 30.2 °F 23.4 °F 26.6 °F 86% 30.14 in 3.0 mi ENE 6.9 mph - 0.01 in Snow Light Snow
11:52 AM 30.0 °F 23.2 °F 26.1 °F 85% 30.24 in 4.0 mi ENE 6.9 mph - 0.01 in Snow Light Snow
12:08 PM 30.2 °F 24.3 °F 26.6 °F 86% 30.13 in 5.0 mi East 5.8 mph - 0.00 in Snow Light Snow
12:25 PM 30.2 °F 24.3 °F 24.8 °F 80% 30.13 in 10.0 mi East 5.8 mph - 0.00 in   Overcast
12:52 PM 30.0 °F 25.2 °F 25.0 °F 82% 30.22 in 10.0 mi ESE 4.6 mph - 0.00 in   Overcast
1:10 PM 28.4 °F 23.3 °F 24.8 °F 86% 30.12 in 10.0 mi ESE 4.6 mph - N/A   Overcast
1:48 PM 30.2 °F - 24.8 °F 80% 30.11 in 10.0 mi Calm Calm - N/A   Overcast
1:52 PM 30.0 °F 26.5 °F 25.0 °F 82% 30.22 in 10.0 mi ESE 3.5 mph - N/A   Overcast
2:24 PM 30.2 °F 23.4 °F 24.8 °F 80% 30.11 in 10.0 mi SE 6.9 mph - N/A   Overcast
2:39 PM 28.4 °F 23.3 °F 24.8 °F 86% 30.12 in 10.0 mi ESE 4.6 mph - N/A   Overcast
2:52 PM 28.9 °F 23.9 °F 24.1 °F 82% 30.22 in 10.0 mi SSE 4.6 mph - N/A   Overcast
3:26 PM 28.4 °F 22.2 °F 26.6 °F 93% 30.12 in 10.0 mi SSE 5.8 mph - N/A   Overcast
3:52 PM 28.9 °F 22.8 °F 24.1 °F 82% 30.22 in 10.0 mi South 5.8 mph - N/A   Overcast
4:13 PM 26.6 °F 19.1 °F 23.0 °F 86% 30.11 in 10.0 mi South 6.9 mph - N/A   Scattered Clouds
4:52 PM 24.1 °F 16.0 °F 21.0 °F 88% 30.24 in 10.0 mi South 6.9 mph - N/A   Clear
5:52 PM 21.0 °F 14.6 °F 19.9 °F 96% 30.24 in 10.0 mi SSE 4.6 mph - N/A   Clear
6:52 PM 21.0 °F 14.6 °F 19.0 °F 92% 30.24 in 10.0 mi SE 4.6 mph - N/A   Clear
7:52 PM 19.0 °F 13.9 °F 17.1 °F 92% 30.24 in 10.0 mi ESE 3.5 mph - N/A   Clear
8:33 PM 17.6 °F 12.3 °F 15.8 °F 93% 30.11 in 10.0 mi ESE 3.5 mph - N/A   Partly Cloudy
8:52 PM 19.0 °F 13.9 °F 16.0 °F 88% 30.24 in 10.0 mi ESE 3.5 mph - N/A   Scattered Clouds
9:28 PM 17.6 °F - 15.8 °F 93% 30.11 in 3.0 mi Calm Calm - N/A   Mostly Cloudy
9:35 PM 17.6 °F - 14.0 °F 86% 30.11 in 1.0 mi Calm Calm - N/A   Mostly Cloudy
9:44 PM 17.6 °F - 14.0 °F 86% 30.11 in 0.5 mi Calm Calm - N/A Fog Light Freezing Fog
9:52 PM 18.0 °F 12.7 °F 16.0 °F 92% 30.24 in 0.2 mi ESE 3.5 mph - N/A Fog Light Freezing Fog
10:03 PM 19.4 °F 12.8 °F 15.8 °F 86% 30.11 in 0.2 mi ESE 4.6 mph - N/A Fog Light Freezing Fog
10:52 PM 17.1 °F - 15.1 °F 92% 30.22 in 0.2 mi Calm Calm - N/A Fog Light Freezing Fog
11:52 PM 15.1 °F - 12.0 °F 88% 30.22 in 0.2 mi Calm Calm - N/A Fog Light Freezing Fog